Tracking 30692 objects as of 16-Jun-2025
HD Live streaming from Space Station
objects crossing your sky now

CENTISPACE-1 S15

Track CENTISPACE-1 S15 now!
10-day predictions


NORAD ID: 62584
Int'l Code: 2025-007K
Perigee: 664.5 km
Apogee: 678.2 km
Inclination: 55.0 °
Period: 98.0 minutes
Semi major axis: 7042 km
RCS: Unknown
Launch date: January 13, 2025
Source: People's Republic of China (PRC)
Launch site: Yellow Sea Launch Area, China (YSLA)
Your satellite tracking list
Your tracking list is empty




NASA's NSSDC Master Catalog

Two Line Element Set (TLE):
1 62584U 25007K   25167.38846854  .00001244  00000-0  24403-3 0  9993
2 62584  54.9812 219.2446 0009720 251.0390 108.9554 14.69023397 22754
Source of the keplerian elements: AFSPC